Date,TemperatureHighF,TemperatureAvgF,TemperatureLowF,DewpointHighF,DewpointAvgF,DewpointLowF,HumidityHigh,HumidityAvg,HumidityLow,PressureMaxIn,PressureMinIn,WindSpeedMaxMPH,WindSpeedAvgMPH,GustSpeedMaxMPH,PrecipitationSumIn
2013-10-1,93,75,56,84,70,56,98,87,54,29.85,29.76,9,2,0,0.00
2013-10-2,93,80,72,88,76,31,98,90,22,29.89,29.77,11,3,0,0.00
2013-10-3,95,81,72,86,76,71,98,88,58,29.85,29.72,12,5,0,0.00
2013-10-4,93,80,70,86,77,69,98,91,63,29.83,29.73,10,5,0,0.00
2013-10-5,77,64,52,76,62,51,98,92,73,30.07,29.79,10,4,0,0.01
2013-10-6,78,59,39,62,42,-41,99,62,2,30.12,30.01,8,2,0,0.01
2013-10-7,86,62,40,56,48,39,98,69,28,30.11,29.98,6,1,0,0.00
2013-10-8,88,66,44,60,53,44,98,69,31,30.02,29.88,9,2,0,0.00
2013-10-9,88,69,47,70,61,46,98,79,46,29.99,29.85,9,3,0,0.00
2013-10-10,86,74,63,79,71,63,98,92,67,29.95,29.77,13,4,0,0.00
2013-10-11,89,77,68,84,76,67,98,96,79,29.84,29.75,10,4,0,0.00
2013-10-12,90,77,71,87,76,71,99,98,81,30.01,29.82,7,1,0,0.01
2013-10-13,76,71,67,76,69,29,99,95,22,30.14,29.97,5,2,0,0.07
2013-10-14,81,73,69,80,72,28,99,98,19,30.04,29.83,9,3,0,0.22
2013-10-15,73,64,51,73,60,16,99,90,22,30.00,29.83,10,4,0,2.81
2013-10-16,66,56,50,65,55,26,99,97,37,30.05,29.96,9,4,0,0.88
2013-10-17,74,56,41,61,51,13,99,85,28,30.07,29.89,7,1,0,0.00
2013-10-18,74,60,48,74,60,48,98,98,98,30.06,29.80,12,2,0,0.00
2013-10-19,66,50,40,52,46,40,98,86,54,30.17,30.01,10,3,0,0.00
2013-10-20,77,57,37,67,53,11,99,88,32,30.01,29.77,13,3,0,0.00
2013-10-21,72,60,49,72,59,49,98,98,98,30.05,29.82,9,2,0,0.00
2013-10-22,76,57,42,59,50,42,98,81,42,30.13,30.01,6,1,0,0.00
2013-10-23,82,59,41,62,51,41,98,79,40,30.10,29.99,8,2,0,0.09
2013-10-24,82,59,42,63,52,41,98,82,46,30.18,30.05,6,1,0,0.00
2013-10-25,78,62,48,71,60,47,98,93,71,30.28,30.12,6,2,0,0.00
2013-10-26,78,66,60,78,66,52,99,98,64,30.13,29.96,10,3,0,1.19
2013-10-27,72,62,56,71,60,-31,99,96,2,30.08,29.93,6,2,0,0.39
2013-10-28,79,69,57,78,67,38,99,93,41,29.99,29.87,8,3,0,0.00
2013-10-29,80,73,68,79,72,67,98,98,98,29.98,29.88,9,4,0,0.00
2013-10-30,77,72,68,77,71,40,99,97,35,29.93,29.72,8,3,0,0.00
2013-10-31,75,66,45,69,57,45,99,78,45,29.82,29.66,14,3,0,0.00